GFSNGP_925_rhum_120.txt.gz
RH
60 57 63 78 85 80 93 88 92 92 92 78 66 76 69 59 61 68 74 72 80 84 88 87 94 100 100 100 100 100 100 100 100 100 98 96 95 91 90 88 86 89 96 100
56 56 56 72 77 68 76 83 75 69 76 70 55 59 65 64 64 68 71 74 74 74 77 80 85 96 100 100 100 96 96 100 99 97 95 96 95 97 94 94 96 100 100 99
73 59 56 64 95 97 95 92 88 96 90 66 63 71 74 67 62 68 70 71 73 73 74 78 87 89 94 99 100 98 98 100 99 97 95 94 93 94 94 96 98 99 98 97
76 53 74 70 70 84 98 95 89 76 71 65 64 66 68 66 65 66 62 63 63 65 71 75 78 82 86 88 93 96 97 96 95 93 92 90 90 91 91 92 91 89 86 82
71 73 70 67 68 72 77 98 80 75 68 63 58 47 62 66 67 68 64 66 67 68 69 71 73 76 77 78 81 83 87 89 87 85 85 86 84 82 83 82 81 81 75 75
70 73 68 65 66 67 67 77 74 69 70 69 55 51 62 67 66 65 67 71 68 70 68 66 71 71 70 72 73 76 81 84 85 83 81 83 81 79 78 78 76 77 77 76
59 71 61 57 70 68 67 74 78 74 73 72 67 66 65 66 66 68 73 73 71 73 73 76 74 70 67 70 74 80 78 79 78 78 78 80 80 77 76 77 77 81 82 81
72 70 70 71 71 68 69 73 79 83 78 73 72 72 72 70 69 68 69 72 74 70 76 82 83 73 72 79 83 84 83 79 78 78 76 76 77 78 83 87 90 90 90 94
59 54 67 74 72 71 71 76 76 79 76 68 68 70 70 70 70 72 74 73 75 73 73 78 83 78 77 83 76 81 84 85 86 82 80 82 85 87 88 88 84 85 97 99
67 64 72 68 71 71 72 73 69 70 74 73 72 68 67 68 71 75 78 77 79 75 72 75 81 85 86 85 84 80 80 83 85 84 87 88 88 86 84 87 86 92 100 100
65 65 71 69 65 65 73 70 70 68 70 76 72 75 78 73 71 76 80 84 82 80 76 75 80 86 89 89 86 82 82 83 84 85 87 87 89 86 84 83 88 88 90 92
49 49 56 60 66 69 68 70 70 70 70 71 68 69 72 73 80 83 86 84 83 84 84 84 81 82 83 81 88 87 86 88 88 87 87 90 88 88 84 86 85 86 86 85
52 59 61 63 65 68 65 66 66 67 70 72 72 73 74 72 74 83 81 78 76 76 74 78 84 87 85 82 83 87 91 93 92 91 88 89 91 89 89 92 92 90 92 94
65 68 75 72 70 68 68 71 72 70 72 73 76 76 77 77 77 76 76 80 82 82 80 79 80 86 87 86 88 89 89 90 93 93 95 95 94 98 95 96 98 99 99 100
72 69 67 70 70 74 76 74 75 75 72 71 73 74 76 77 79 82 86 86 87 88 88 88 91 90 93 95 94 92 93 96 99 97 95 95 96 98 100 100 100 97 96 99
75 72 73 72 76 76 73 73 73 71 70 72 73 73 75 77 77 77 80 84 90 90 99 98 98 98 98 99 100 100 100 100 100 100 99 100 100 100 100 100 100 100 98 96
81 85 80 82 79 78 75 72 72 71 72 72 70 74 80 78 77 74 76 85 92 92 95 100 100 99 99 100 100 100 100 100 100 100 100 100 100 100 100 100 100 100 97 95
64 63 65 64 71 73 72 70 72 70 68 76 82 86 83 75 74 80 83 86 91 90 89 96 97 99 99 99 99 98 99 100 100 100 100 100 99 99 100 100 100 100 99 99
72 74 73 67 67 65 66 66 66 71 75 75 82 84 84 82 80 84 86 85 82 84 83 95 92 100 99 98 98 97 99 94 85 86 96 100 99 99 99 99 99 100 100 100
73 68 67 66 67 64 60 69 76 78 79 87 88 82 76 77 83 87 82 77 74 74 80 88 90 99 99 97 97 99 98 95 86 83 87 90 90 98 100 98 99 99 99 99
62 58 57 60 66 76 81 84 86 81 80 88 88 84 87 90 91 94 90 79 72 78 93 94 97 100 99 97 98 99 98 95 88 85 88 88 91 97 100 100 98 98 98 98
77 80 82 84 87 88 86 88 88 89 90 90 91 92 95 93 93 92 88 88 87 97 100 100 100 98 99 98 99 95 96 96 91 90 92 96 97 96 97 98 97 97 100 98
77 83 86 90 91 92 90 85 80 83 91 98 99 100 100 99 99 94 81 88 100 100 100 100 99 97 96 96 98 100 100 99 97 94 96 100 100 99 97 94 96 98 94 93
82 85 85 86 89 84 82 83 82 89 95 93 90 90 98 97 90 97 100 100 100 100 100 100 100 99 98 97 97 98 99 100 98 99 97 98 100 98 92 88 85 82 79 78
88 89 90 91 86 81 90 93 94 92 90 90 86 86 89 95 100 99 100 100 98 100 100 100 100 99 96 98 100 100 100 100 98 98 98 100 100 99 97 92 84 79 78 78
95 89 90 96 94 98 99 99 91 92 93 89 88 89 90 91 98 100 100 100 100 100 100 100 100 100 98 98 96 100 100 99 96 95 99 99 94 92 92 89 85 83 86 86
95 99 100 100 100 98 99 97 95 90 94 96 95 92 92 94 97 99 100 100 100 100 100 100 100 99 98 98 96 97 92 90 88 93 91 90 90 90 87 86 85 85 83 81

GFSNGP_925_rhum_123.txt.gz
RH
53 59 78 68 79 73 94 98 95 100 100 98 85 76 72 67 70 80 91 95 96 98 97 95 99 100 100 99 99 99 99 100 100 100 100 100 100 100 99 99 100 100 100 100
50 48 52 65 73 74 90 83 70 67 94 67 68 60 58 60 64 75 78 86 93 95 91 86 92 99 100 100 97 96 98 99 99 98 97 98 99 100 100 99 96 96 95 97
70 46 47 60 78 92 85 80 88 98 78 60 70 71 69 62 60 65 67 70 73 75 81 84 87 92 98 99 94 93 96 98 96 95 94 93 93 93 94 96 98 100 100 100
70 46 68 61 56 71 84 75 68 64 57 54 61 65 64 62 62 62 62 64 64 64 68 72 74 79 84 92 95 94 95 95 94 94 93 93 92 94 95 96 96 97 98 99
65 62 59 60 57 62 66 76 61 62 57 51 46 46 63 61 60 62 61 59 61 62 62 64 66 70 73 76 81 85 88 90 91 91 91 90 89 89 90 91 92 92 93 95
57 66 59 55 59 58 57 74 61 60 62 60 48 58 68 60 59 61 62 64 63 61 61 62 62 62 63 66 67 74 77 82 86 88 87 86 89 91 90 92 92 90 91 88
52 61 50 50 58 57 72 84 65 67 64 64 68 68 62 57 59 60 66 66 63 65 68 70 68 64 64 68 77 81 82 85 83 83 85 86 87 86 85 88 87 88 85 89
56 56 61 57 60 64 64 67 72 75 68 65 65 64 64 63 64 62 63 66 67 64 69 74 76 68 70 80 78 79 80 83 84 85 82 82 83 83 88 87 86 87 86 87
50 51 58 61 58 58 56 61 69 71 71 60 60 62 62 64 64 65 66 67 68 66 65 70 75 75 72 78 78 80 80 80 80 83 84 83 82 83 83 83 80 80 83 87
56 46 56 60 57 57 55 58 60 64 65 66 63 62 60 60 62 65 68 67 68 66 65 67 72 75 78 79 76 76 73 78 80 81 81 80 81 78 78 80 79 78 87 94
50 51 55 56 54 54 61 58 60 60 61 64 63 65 66 63 66 71 76 79 80 78 72 69 71 74 79 83 81 76 74 74 76 77 83 78 82 80 78 76 81 82 88 91
38 36 45 43 51 54 59 60 60 60 62 63 61 62 62 63 67 68 73 76 72 71 72 79 81 79 80 80 82 86 82 82 81 79 81 82 79 82 82 80 82 84 86 88
39 40 43 48 52 56 56 57 58 58 60 62 61 63 65 64 66 75 73 72 74 76 78 78 79 80 82 81 84 86 87 84 87 92 88 89 89 86 86 90 88 89 88 89
48 56 64 61 63 59 56 59 66 61 64 65 67 68 69 69 70 72 74 78 80 82 83 85 87 87 90 90 89 90 92 94 94 96 96 93 92 93 92 95 94 92 93 95
53 54 49 53 57 61 63 64 64 64 63 62 64 64 65 65 66 68 70 72 77 82 84 92 92 91 98 99 99 98 98 98 98 98 96 96 98 100 100 100 98 96 95 98
59 62 64 65 65 66 65 66 66 63 62 62 63 61 63 67 67 66 66 68 72 77 82 92 95 98 98 98 99 100 100 100 100 100 100 100 100 99 99 100 100 99 99 96
74 78 70 69 70 67 65 60 63 63 57 54 55 62 66 64 64 57 62 66 71 75 77 85 88 95 100 99 100 100 99 99 99 99 100 100 100 100 100 100 100 100 99 95
56 56 56 55 61 63 66 61 56 53 49 56 58 60 64 64 64 64 65 70 77 78 76 77 89 98 98 99 100 100 100 99 99 99 98 98 99 99 99 100 100 100 99 99
56 57 57 57 59 54 47 50 52 55 58 60 66 70 73 72 66 69 72 74 73 73 71 74 79 88 99 98 99 98 97 97 98 99 99 98 98 98 99 99 99 99 99 100
61 60 53 54 52 50 50 54 59 62 66 72 74 71 67 68 72 75 78 80 78 75 75 83 89 87 90 98 100 100 99 99 99 98 97 92 96 97 97 98 99 99 99 99
62 56 54 51 53 59 63 69 70 69 71 75 77 74 77 79 82 83 83 77 74 78 90 92 93 96 97 99 98 96 96 97 97 98 98 96 89 97 97 98 98 97 98 98
71 72 68 67 72 76 79 80 77 77 79 80 82 84 86 86 84 83 82 79 84 90 94 93 94 98 100 100 96 96 96 97 98 94 94 91 89 92 93 95 98 97 99 98
68 72 76 81 85 86 91 87 84 84 88 95 95 95 92 92 92 87 80 82 91 92 93 93 95 97 99 98 97 96 95 96 96 96 93 94 95 95 97 97 98 98 100 100
66 68 71 76 78 75 75 82 86 89 90 88 88 85 91 87 84 87 93 95 95 95 95 96 99 98 98 100 99 97 95 95 96 96 97 95 97 98 100 100 94 95 91 90
83 87 89 89 82 76 80 86 91 91 90 88 86 87 87 96 98 95 98 100 98 98 97 97 98 100 100 100 100 97 96 96 95 95 95 97 97 100 100 100 95 90 86 84
90 84 83 83 74 82 87 94 82 80 81 76 79 85 87 91 93 94 92 93 95 94 95 97 100 100 100 100 98 95 96 96 96 95 97 98 99 100 100 98 88 84 90 92
91 91 96 93 91 93 95 90 81 80 86 84 83 87 90 93 91 92 92 92 91 92 94 97 100 100 100 100 96 96 96 98 98 97 98 100 99 100 95 90 87 85 83 83

GFSNGP_925_rhum_126.txt.gz
RH
53 59 64 76 79 85 96 98 98 99 99 98 94 89 89 89 89 91 94 96 97 97 95 97 99 100 99 98 98 99 99 99 100 99 97 96 96 99 98 100 95 96 99 97
58 47 49 77 77 80 86 85 89 85 100 76 73 74 70 78 83 91 92 90 91 93 91 91 98 100 99 97 98 100 100 100 100 100 100 99 94 94 100 100 99 99 99 100
82 50 46 76 85 88 80 77 93 98 76 72 79 78 77 73 72 75 76 72 74 79 78 78 83 92 98 95 96 97 98 98 97 97 99 100 100 100 100 100 100 100 100 100
88 70 84 66 64 65 70 67 62 65 61 69 76 75 73 72 74 75 71 70 66 66 68 71 73 77 84 90 92 94 95 95 94 94 94 94 96 98 98 99 99 99 99 99
87 84 64 63 61 60 68 73 61 69 68 63 54 62 77 68 69 73 74 70 67 64 66 65 63 67 71 74 79 82 86 90 91 92 92 92 93 94 94 94 96 98 99 100
66 78 77 68 62 57 60 85 70 62 74 73 65 88 90 72 70 72 70 69 68 69 72 71 67 63 69 76 78 79 79 82 86 88 89 89 90 90 90 91 92 93 95 96
64 75 62 57 58 56 89 82 75 74 70 79 89 82 72 68 71 67 70 70 66 70 75 77 72 70 76 78 82 80 82 82 80 79 80 83 85 86 88 90 90 90 92 92
65 63 70 59 67 78 75 70 75 74 72 76 75 72 72 72 74 73 72 70 68 69 71 73 73 72 79 79 78 80 80 81 81 82 82 82 82 84 85 84 84 86 87 90
59 71 67 60 68 60 61 73 73 77 71 64 69 70 70 74 75 75 71 70 69 67 68 72 74 74 78 78 76 76 77 79 81 83 81 82 82 82 85 85 85 85 85 85
62 58 74 70 62 61 59 67 69 68 70 67 71 71 70 70 75 76 74 77 75 72 72 72 72 76 80 81 78 76 74 74 78 79 81 81 81 81 82 82 82 82 82 85
58 58 54 64 66 66 63 63 65 64 65 69 66 73 69 63 66 70 80 81 80 79 78 76 72 74 77 78 76 82 82 79 77 77 78 79 80 80 80 79 79 80 80 80
68 52 63 60 64 62 71 67 67 70 71 66 63 68 64 69 71 73 76 75 74 72 72 73 73 71 70 72 74 77 82 87 87 90 86 82 81 81 82 80 79 80 82 83
45 46 50 57 62 62 66 66 63 63 66 69 67 67 66 69 72 73 72 73 75 78 79 79 79 78 77 77 86 91 85 88 87 88 91 93 93 91 89 83 85 86 85 87
58 64 67 66 74 66 63 64 64 62 66 68 69 68 70 71 70 72 70 72 76 81 85 88 90 91 94 97 97 97 98 96 96 98 98 98 100 100 100 100 98 93 93 94
65 56 62 67 72 70 65 68 73 74 71 69 65 67 67 72 73 72 69 69 72 74 71 74 80 88 92 94 96 97 98 98 98 99 100 100 100 100 100 100 100 99 99 99
66 67 69 74 77 77 76 75 75 75 71 69 62 61 64 65 64 62 61 65 71 77 77 78 81 85 86 93 99 99 99 99 100 100 100 99 99 100 100 100 100 100 100 99
84 87 82 82 82 81 79 73 71 72 60 58 62 59 63 64 64 65 66 69 74 77 78 78 77 75 78 95 100 99 100 99 98 99 99 100 99 99 99 99 100 100 100 100
67 70 73 74 79 78 77 72 60 55 56 59 59 62 68 74 75 70 72 73 74 74 74 76 76 78 80 91 99 100 99 99 98 99 99 97 98 99 99 99 99 99 99 99
68 72 70 70 68 74 70 60 54 56 58 63 70 76 76 71 71 74 77 80 82 82 80 76 83 85 85 89 96 98 99 97 92 92 97 95 93 95 98 98 99 99 99 99
72 67 66 60 53 53 57 53 56 61 68 72 73 71 74 76 78 82 84 85 80 81 85 90 94 93 92 91 95 93 93 96 99 98 95 94 96 97 96 98 98 98 98 99
74 67 66 59 58 53 55 60 66 70 72 76 78 80 82 84 85 84 85 89 81 85 88 92 90 89 91 95 94 95 96 97 97 97 98 98 97 94 92 95 97 97 97 98
76 74 70 65 73 76 71 71 72 73 78 80 81 84 86 87 86 85 82 84 87 88 89 89 88 91 89 94 93 94 95 96 97 98 97 96 96 97 90 94 97 97 96 97
76 75 77 80 83 86 83 79 78 79 81 87 90 88 89 88 89 93 92 86 92 93 94 90 92 94 95 94 92 96 96 96 99 97 95 96 96 96 91 92 96 98 99 99
74 73 74 75 83 86 92 84 77 80 85 87 82 77 76 88 79 86 88 95 97 96 96 96 93 95 96 95 100 95 94 98 95 95 96 98 95 92 94 95 97 97 95 93
77 81 81 80 83 85 80 82 87 90 87 88 79 77 80 90 86 85 93 96 94 93 91 93 95 97 94 96 99 97 98 97 98 99 97 97 96 93 95 96 98 95 93 87
86 90 86 76 78 80 85 88 87 84 81 78 80 81 83 85 87 90 90 92 91 91 90 91 91 93 94 99 99 98 97 96 97 94 97 95 95 96 100 99 95 91 89 96
85 88 88 88 84 85 88 88 83 83 82 77 78 82 82 86 88 90 86 86 90 91 90 91 91 95 95 98 97 97 96 96 99 99 96 97 98 96 95 95 94 92 90 89

GFSNGP_925_rhum_129.txt.gz
RH
61 69 72 78 82 84 98 99 98 99 99 98 97 97 96 90 89 89 92 94 94 96 96 97 98 100 100 100 100 100 100 100 100 100 99 99 97 97 100 100 99 99 100 100
67 56 67 80 79 86 80 87 100 93 100 89 85 87 90 92 89 90 88 87 86 87 88 94 98 99 100 100 100 99 100 100 100 100 100 96 100 100 100 100 100 100 96 99
88 65 62 75 81 83 77 71 86 99 94 81 86 86 89 88 85 84 86 80 79 80 76 84 90 96 100 100 97 97 98 99 100 100 100 100 99 97 100 100 100 99 100 99
88 74 85 62 66 62 74 67 70 78 74 78 81 79 76 79 83 82 78 75 73 72 72 73 77 84 89 91 92 93 94 94 94 94 97 99 99 100 100 100 100 100 100 100
86 94 66 67 69 68 76 76 70 84 82 75 73 73 81 76 77 82 81 75 78 80 80 76 77 80 81 82 84 87 91 92 91 91 91 92 93 95 97 97 99 100 99 99
79 82 84 62 66 61 64 89 78 77 88 88 71 92 90 84 78 79 77 76 78 80 81 80 78 73 79 86 86 88 87 86 88 91 92 91 91 93 94 91 88 91 98 99
82 84 72 60 64 60 86 76 81 80 84 89 92 80 80 78 82 76 78 77 73 77 82 82 80 75 82 81 82 80 79 82 84 85 84 85 85 88 91 93 98 99 98 97
76 71 72 69 71 83 73 79 82 78 81 86 84 80 81 82 85 83 81 77 74 77 77 77 76 76 86 85 79 76 77 76 78 79 81 85 86 85 87 90 93 93 95 96
67 69 66 69 65 65 74 82 79 79 77 76 78 78 78 86 85 84 82 81 75 74 75 75 75 74 78 77 77 77 75 77 78 78 78 79 81 83 86 89 90 90 93 95
62 56 75 71 66 64 68 75 79 79 77 76 83 81 79 84 83 87 86 86 82 80 83 80 75 72 72 69 69 68 73 77 78 79 80 81 81 82 83 85 88 90 90 89
69 58 59 73 74 70 70 75 74 70 72 74 80 79 77 80 84 86 83 77 75 76 77 78 78 78 78 79 81 84 82 79 82 84 84 83 81 81 81 81 82 82 83 83
64 59 62 64 76 72 76 76 76 76 75 72 73 77 78 86 84 83 83 80 82 83 83 83 84 86 90 93 94 94 95 97 97 98 96 95 94 89 83 84 83 82 81 82
46 51 58 52 73 74 75 75 75 76 76 78 74 73 73 81 78 78 76 75 77 80 80 80 84 86 86 91 94 100 100 100 100 99 99 99 98 99 99 95 94 94 89 88
51 64 66 70 77 76 72 72 68 72 71 73 75 74 74 76 75 73 74 72 71 71 69 70 78 71 68 79 84 89 97 100 100 100 100 100 100 100 100 100 100 99 97 100
73 60 66 73 79 77 75 75 81 83 82 79 72 73 72 78 77 73 69 69 70 70 71 73 74 76 82 83 84 83 90 95 97 98 97 99 99 100 100 100 100 100 100 99
75 71 80 79 82 84 81 83 85 87 82 79 71 69 67 67 66 66 66 67 73 82 80 79 81 79 75 73 73 84 93 98 100 99 100 100 100 100 100 100 100 100 100 100
82 84 86 87 84 85 83 84 85 83 74 67 69 64 64 68 70 69 71 74 75 76 76 81 81 76 77 79 90 95 97 98 100 98 96 100 100 100 99 99 100 100 99 99
59 64 76 75 82 85 87 83 75 66 66 62 59 63 72 75 78 76 77 78 79 80 81 79 86 88 85 91 89 93 98 99 97 95 96 96 92 91 96 100 99 100 100 99
77 78 84 80 79 80 80 72 62 57 59 59 68 78 77 75 77 81 82 82 86 86 90 89 97 93 92 88 92 91 90 93 95 95 98 96 93 88 94 99 100 100 99 99
83 78 80 81 77 74 69 59 57 61 63 70 75 76 80 81 82 85 84 86 87 88 87 91 89 86 84 88 90 87 94 98 100 99 98 95 95 96 93 93 97 96 97 98
83 83 81 75 71 65 60 57 62 76 73 70 74 80 82 84 84 84 86 89 87 88 87 87 86 84 87 98 96 89 96 98 99 100 99 100 98 95 98 97 92 98 97 97
81 78 76 69 67 70 58 60 64 72 77 78 80 83 84 87 85 82 85 88 91 92 90 93 90 91 94 99 88 91 94 93 96 100 98 96 96 99 97 96 94 97 98 98
76 74 72 73 74 79 73 71 71 73 79 81 83 83 79 81 85 88 92 87 90 91 92 91 92 98 99 92 93 99 95 96 99 97 95 95 99 97 94 92 95 98 97 99
74 71 73 75 79 87 91 85 78 76 77 81 77 71 73 84 83 90 91 92 94 93 93 93 91 93 99 94 96 95 97 98 94 97 100 99 96 95 94 91 95 98 96 92
74 79 84 89 89 88 86 81 84 88 86 81 74 72 69 66 66 80 84 87 91 92 92 89 94 96 91 93 97 97 98 95 97 99 94 98 97 99 97 97 97 99 100 98
79 78 81 81 76 80 84 91 95 92 86 90 82 78 76 79 81 87 85 86 87 88 86 90 94 96 93 96 97 94 95 95 94 95 100 95 96 98 97 96 95 95 95 95
87 84 84 83 80 78 82 85 89 92 84 76 75 77 77 81 84 89 84 74 78 83 87 90 89 94 97 95 90 91 93 94 98 100 95 95 94 95 96 98 98 98 96 94

GFSNGP_925_rhum_135.txt.gz
RH
77 71 75 84 81 80 99 100 98 98 99 99 99 99 100 92 89 90 93 93 94 95 95 95 96 98 100 100 100 100 100 100 100 100 100 100 100 100 99 100 100 94 94 94
87 65 68 83 72 76 78 89 90 93 98 93 96 96 96 94 91 92 93 92 92 93 93 94 97 98 99 100 100 100 100 100 100 100 99 100 100 100 100 100 100 97 97 95
96 74 71 71 69 76 79 79 90 97 89 82 85 95 96 95 92 94 94 91 89 88 88 91 92 96 96 99 99 100 100 100 100 100 100 100 100 100 100 100 100 100 100 96
97 80 62 47 63 66 76 74 71 82 79 79 82 81 86 86 91 91 90 88 88 86 85 85 85 85 86 86 88 91 93 97 100 100 100 100 99 100 100 100 100 100 100 100
98 98 70 54 71 75 78 73 71 83 81 82 75 70 86 86 85 91 87 84 87 87 88 88 87 85 87 89 89 91 93 92 87 88 92 93 97 100 99 99 98 98 100 100
91 96 91 48 65 65 63 84 78 80 88 89 79 93 97 90 89 90 87 86 89 86 87 89 88 87 89 92 94 98 97 91 84 83 84 87 88 88 90 94 98 100 100 100
95 94 81 57 67 62 65 45 80 80 88 89 94 90 91 88 89 89 89 88 85 88 91 92 88 88 92 96 100 98 95 92 90 87 86 85 83 83 85 84 83 84 87 90
90 90 81 68 70 66 51 82 79 81 84 90 90 90 91 93 96 94 94 90 88 92 96 96 92 93 98 99 93 88 86 87 86 84 86 87 87 87 87 87 86 88 86 83
75 70 48 74 64 62 76 78 82 80 80 83 85 86 86 94 95 95 92 88 86 90 97 99 98 95 100 97 89 86 84 86 82 80 78 77 81 87 89 91 97 98 97 96
62 52 66 69 73 73 78 78 79 77 81 83 83 87 88 93 93 91 90 91 89 91 98 100 88 77 76 79 90 91 92 90 91 90 91 88 86 94 99 100 99 100 100 100
78 66 63 57 76 76 79 76 81 80 81 81 84 84 86 94 90 89 89 89 87 89 95 93 78 77 74 74 73 75 84 92 88 92 90 90 90 93 96 97 98 100 99 99
62 52 50 41 54 78 81 83 85 86 83 83 82 86 87 92 89 87 89 86 84 85 90 85 82 82 81 80 77 82 92 89 88 84 82 82 80 83 84 90 97 100 100 100
48 49 56 48 57 74 80 84 86 86 82 86 82 82 86 89 88 87 84 84 84 84 80 77 80 83 79 76 72 80 95 91 90 92 88 87 90 91 90 95 98 100 100 100
62 52 60 73 62 83 80 82 79 80 78 79 80 82 84 88 88 83 81 79 74 73 75 73 80 82 78 76 73 83 94 92 89 98 98 97 98 97 95 95 94 91 88 88
58 66 57 60 68 85 82 88 90 90 90 88 82 84 84 88 87 79 72 71 71 74 76 79 87 85 77 74 78 87 93 96 93 92 94 94 90 91 90 87 89 84 85 85
53 60 64 72 74 86 87 90 86 91 91 90 88 85 81 79 74 72 73 68 69 81 80 79 80 82 75 68 72 79 85 89 90 90 90 90 88 88 89 95 100 100 100 100
64 62 74 84 82 89 86 83 81 85 88 88 86 81 77 74 76 80 78 73 70 70 74 75 82 76 75 80 84 85 85 81 85 90 86 85 92 88 97 99 94 95 94 94
55 49 54 66 72 83 87 85 84 86 86 83 78 75 76 76 77 79 75 72 73 77 80 80 82 80 82 84 86 87 84 88 85 91 98 99 98 92 93 96 95 94 99 94
60 58 58 71 80 81 82 87 86 85 83 79 78 78 70 67 73 76 76 75 78 84 82 80 85 84 84 84 89 97 93 94 96 100 98 98 95 95 95 98 100 100 98 100
75 66 67 75 79 83 89 84 86 84 79 75 72 73 79 76 72 75 77 79 77 80 82 85 90 86 85 90 94 91 85 91 99 100 100 98 96 99 93 97 100 100 100 100
88 84 85 87 90 84 83 86 83 83 78 70 70 76 76 76 75 78 85 91 83 85 89 89 87 85 84 96 97 89 88 95 95 98 99 98 94 95 95 95 92 97 100 99
94 95 94 92 92 91 85 81 79 79 76 72 66 68 75 84 84 84 76 76 81 93 90 88 85 87 95 99 89 86 92 94 92 93 94 94 95 97 97 95 97 100 94 94
87 87 90 92 91 86 80 78 78 76 75 70 71 75 79 83 81 90 95 81 81 90 90 87 89 95 100 91 87 90 93 93 92 95 97 94 97 96 95 97 100 96 98 98
82 81 83 85 85 84 87 82 77 72 66 65 63 63 71 87 87 74 68 71 80 92 87 80 90 92 96 89 87 92 94 91 91 96 96 98 92 91 92 95 94 94 99 96
81 80 82 85 87 84 79 85 80 77 74 74 71 73 71 67 63 76 68 78 91 89 86 82 91 96 92 86 91 94 91 91 95 98 95 94 92 91 93 96 96 99 100 98
84 86 84 82 78 78 81 83 79 89 88 94 87 80 75 71 63 69 71 70 82 84 80 75 76 82 84 87 88 88 88 87 88 92 100 94 92 92 93 94 95 96 96 97
86 82 82 83 79 78 81 81 85 90 86 87 86 82 74 72 73 72 72 74 74 76 75 73 76 79 80 84 86 88 88 88 89 94 93 94 93 94 94 94 94 94 96 95

GFSNGP_925_rhum_138.txt.gz
RH
81 74 76 78 78 76 96 97 99 96 99 99 100 100 100 98 90 89 90 92 93 95 95 94 95 98 99 100 100 100 100 99 100 100 100 99 100 100 100 97 99 98 100 100
91 69 71 75 75 76 77 88 91 90 96 78 85 91 96 96 95 91 92 92 91 91 91 93 95 97 98 99 100 100 100 100 100 100 100 100 100 100 100 98 100 100 100 99
96 76 78 67 65 74 74 77 84 97 80 79 84 90 96 96 93 93 92 92 91 92 92 95 97 98 98 99 98 99 100 100 100 100 100 100 100 99 100 100 100 100 100 100
97 85 49 43 60 64 74 72 72 77 74 77 82 83 84 87 92 91 90 88 88 89 88 90 90 91 91 90 90 93 97 99 100 99 100 100 100 100 100 100 99 100 100 100
99 100 71 54 69 75 73 70 67 74 78 81 78 74 81 85 88 95 92 89 88 89 90 88 89 91 92 94 95 96 98 99 99 97 96 96 98 100 100 99 100 100 100 98
95 99 86 40 62 66 62 70 77 80 83 88 76 88 88 92 91 94 93 90 92 93 94 96 96 94 94 96 96 98 99 98 96 96 95 94 92 88 86 84 84 85 88 93
98 93 84 62 65 64 54 42 78 79 85 88 91 85 92 87 93 91 92 91 92 97 100 100 97 95 98 99 100 97 90 87 84 87 90 91 88 87 84 82 80 82 80 80
94 98 84 66 75 66 44 77 79 82 85 92 93 95 92 94 94 93 93 92 94 100 99 96 83 93 100 100 95 87 84 91 94 87 90 88 88 98 100 99 99 99 95 87
77 71 52 73 62 63 75 74 83 80 82 87 92 93 92 96 94 94 92 94 94 97 99 87 82 85 98 93 83 81 88 91 95 89 89 97 100 99 95 97 99 99 99 99
62 48 65 56 61 75 78 77 76 78 83 88 86 90 92 95 93 93 93 94 92 93 92 90 82 78 74 65 71 77 90 92 86 90 82 79 84 83 85 90 93 96 99 99
78 66 60 54 62 62 75 80 79 82 83 86 86 90 90 95 93 92 92 89 85 90 88 88 83 83 77 75 80 88 89 86 84 83 82 85 90 94 94 95 96 95 100 99
55 48 46 43 45 63 77 82 84 86 88 84 86 89 90 94 91 90 90 87 86 90 87 91 86 83 78 79 90 94 89 86 85 83 82 81 82 82 89 91 92 92 92 94
49 47 56 56 61 61 73 80 83 86 84 89 86 84 88 93 90 90 89 88 84 84 82 85 84 84 81 82 90 94 88 84 87 86 90 91 94 92 85 89 87 82 80 89
68 59 64 58 54 52 74 78 77 81 81 81 84 84 86 90 93 85 85 80 77 75 81 90 86 86 86 82 86 91 94 93 92 91 91 90 95 90 92 91 89 93 94 97
55 67 59 60 68 70 70 86 91 92 89 89 84 87 88 94 92 84 78 74 72 75 85 86 86 88 84 80 82 85 89 89 91 88 89 91 86 91 91 88 96 94 94 90
51 57 63 68 65 66 79 89 90 90 92 90 90 89 86 83 83 77 71 72 70 80 84 86 86 84 80 77 82 82 80 86 87 86 86 89 86 86 91 99 92 91 90 93
66 65 56 72 75 76 80 80 84 83 88 90 88 84 86 86 81 79 76 70 71 78 83 85 84 78 74 77 80 82 80 80 86 86 90 91 90 94 95 96 95 95 96 96
64 62 60 58 58 66 79 85 85 86 88 85 85 86 88 85 82 79 75 77 82 87 84 81 77 69 68 76 78 77 80 83 86 90 98 98 94 93 94 95 96 100 100 100
67 75 75 70 63 66 71 82 86 86 86 87 89 89 84 78 71 70 75 84 86 86 84 75 73 62 66 78 86 83 83 81 91 100 100 95 89 96 93 95 96 94 98 100
80 81 84 82 77 79 85 81 83 89 89 88 87 87 85 77 69 74 79 82 73 71 73 70 67 70 76 83 88 89 86 87 99 100 100 96 93 96 93 95 96 96 100 100
86 88 90 90 88 83 86 84 88 94 91 86 84 83 80 74 73 75 86 91 82 81 73 75 74 78 83 94 89 90 85 92 93 96 95 95 94 94 95 94 94 100 99 95
94 95 92 91 95 95 88 90 90 90 88 86 80 78 78 83 82 82 73 66 76 83 78 78 77 80 94 96 93 87 91 94 91 92 94 93 96 96 94 94 97 97 95 95
88 87 86 87 93 92 87 87 88 87 87 84 82 79 75 81 84 91 93 74 74 91 80 81 79 95 100 91 88 87 91 92 90 93 95 96 97 96 94 95 98 95 96 99
87 84 83 81 86 89 94 84 84 85 85 83 78 71 70 89 88 75 62 66 75 94 80 83 91 94 100 90 85 88 90 88 88 95 95 99 94 93 93 94 93 92 95 94
89 87 83 87 94 93 86 85 86 85 84 83 75 70 64 64 64 73 65 71 81 92 86 90 92 93 97 86 82 86 84 85 88 98 94 92 92 92 93 93 94 96 95 94
90 91 85 80 82 82 82 86 87 87 86 89 86 77 73 71 64 66 68 68 83 89 85 83 90 95 84 79 80 81 82 84 87 90 100 94 92 93 94 94 94 95 94 94
86 91 92 89 84 82 81 86 91 90 85 84 83 88 78 79 67 67 69 73 87 87 80 76 76 85 78 78 79 80 83 85 88 91 90 92 92 92 91 91 93 95 92 92

GFSNGP_925_rhum_141.txt.gz
RH
79 73 74 77 82 78 93 87 99 85 98 90 100 100 100 97 94 88 88 90 92 93 93 93 94 97 98 99 100 100 100 99 100 100 100 100 96 98 100 98 94 81 77 99
93 74 79 81 71 72 80 80 89 86 90 75 81 84 91 91 90 90 90 90 90 89 89 92 95 97 98 99 100 100 100 100 100 100 100 100 99 100 100 100 98 96 100 100
92 78 80 64 56 71 70 75 76 87 70 73 77 87 92 93 92 93 89 89 90 89 88 93 95 94 96 99 99 99 99 100 100 100 100 100 100 100 100 100 100 100 100 100
90 85 42 41 57 60 69 69 70 76 72 73 79 85 88 87 92 93 91 89 88 89 90 92 92 90 90 90 90 94 97 99 100 100 100 100 100 100 100 100 100 100 100 100
98 98 65 53 67 74 74 60 65 72 69 77 78 78 92 84 86 93 93 90 92 95 94 94 95 92 89 89 90 91 92 97 99 100 99 99 100 100 100 100 100 100 100 100
94 100 76 32 61 65 62 65 67 76 76 84 79 89 85 89 86 90 93 94 96 98 90 91 94 97 96 96 96 98 98 97 99 100 100 100 100 100 100 97 97 97 97 93
83 88 84 61 67 66 50 31 79 81 79 88 87 79 87 87 92 89 92 95 96 94 87 88 85 91 90 93 98 100 100 94 95 99 100 100 96 96 99 100 100 100 100 100
87 92 80 68 78 63 38 68 73 83 83 88 86 93 93 95 93 90 93 94 95 90 86 73 69 68 83 90 92 93 95 93 86 86 89 85 83 86 88 94 93 96 97 97
78 72 53 64 70 61 62 66 78 80 82 86 94 96 95 98 95 91 92 94 92 82 79 76 72 74 90 89 87 85 88 88 90 90 94 94 95 94 93 90 87 87 89 90
60 49 63 55 53 63 70 74 69 79 80 88 92 91 94 97 96 94 94 93 91 83 86 85 75 68 75 78 79 80 82 83 83 83 83 85 84 86 88 88 87 88 89 88
76 56 44 47 61 57 59 76 76 78 80 86 87 91 91 96 94 93 95 92 87 83 84 84 74 68 73 83 87 87 81 82 81 80 82 80 84 88 86 88 89 87 88 87
55 44 44 46 45 56 61 68 80 83 86 86 86 88 90 94 92 92 95 89 89 82 79 80 78 76 82 88 88 86 81 81 80 79 81 85 80 77 84 85 86 89 94 93
48 51 55 55 59 58 62 62 73 85 85 87 87 85 88 93 92 91 90 87 82 77 80 85 84 82 85 86 92 87 87 83 83 83 83 91 85 87 85 86 88 94 96 89
68 65 64 61 61 52 57 63 69 77 80 83 82 86 86 90 92 94 91 82 72 77 86 86 84 84 84 86 87 91 88 87 92 91 94 96 94 92 90 90 91 92 94 90
60 66 56 55 68 60 61 71 79 89 90 92 85 87 90 94 96 91 84 76 75 77 85 84 84 84 85 84 85 90 90 87 86 90 92 90 91 96 96 92 88 87 86 86
60 66 68 68 62 61 65 67 83 76 91 90 92 92 89 87 89 86 81 74 77 87 87 86 84 82 81 82 80 84 89 88 89 82 82 90 98 95 93 90 90 92 93 97
65 56 52 62 67 66 67 64 66 69 84 91 88 88 90 90 90 87 80 74 69 69 77 82 77 78 80 82 83 84 82 91 91 77 84 94 97 96 93 93 95 98 98 99
67 63 66 69 70 71 70 70 73 77 87 84 85 90 94 94 89 87 77 74 78 80 83 80 75 76 84 86 85 82 78 78 84 94 89 100 93 86 86 90 99 100 100 97
67 72 77 83 81 81 76 72 72 73 79 86 92 93 91 89 86 82 74 80 84 90 82 82 85 77 88 98 83 78 74 78 88 93 92 94 80 83 85 91 99 96 99 100
74 76 79 84 82 85 88 79 79 83 82 90 92 92 94 93 85 80 77 86 74 68 70 77 83 78 86 98 85 80 75 79 84 86 92 88 86 89 88 94 99 96 100 100
71 76 83 85 86 82 84 84 89 91 86 94 95 93 90 90 83 80 89 85 71 72 71 76 79 79 87 96 84 77 76 79 80 82 83 86 87 88 91 92 93 99 100 97
91 95 92 87 90 91 82 85 88 92 93 95 95 91 91 93 88 82 70 68 64 78 76 80 76 80 90 95 87 80 80 80 80 82 88 89 90 91 93 94 95 96 94 95
75 81 81 84 87 84 84 83 82 90 95 94 93 91 89 87 84 83 87 71 66 94 80 76 74 95 100 89 83 78 83 83 82 85 90 90 90 91 92 94 97 95 96 98
72 74 78 78 82 89 94 75 80 82 87 90 90 88 86 87 86 75 64 60 67 97 80 75 92 95 99 87 82 80 82 80 82 86 88 96 90 91 93 94 94 94 96 95
70 70 82 90 93 89 80 77 83 84 86 88 88 87 85 81 78 81 66 67 82 98 80 92 93 95 95 85 75 79 78 78 81 86 86 88 90 92 93 94 94 93 95 95
71 79 76 74 80 79 80 84 92 86 89 93 90 90 87 81 91 93 72 69 91 95 79 92 92 94 91 79 74 76 75 78 83 86 87 88 89 91 92 93 92 93 94 95
67 76 85 88 83 80 81 87 94 92 88 91 87 95 96 97 97 90 84 90 94 91 81 91 91 89 82 73 75 76 78 80 82 84 85 86 88 89 91 91 92 94 95 95

GFSNGP_925_rhum_144.txt.gz
RH
61 58 59 62 65 60 82 81 88 96 93 77 99 100 99 82 76 80 85 85 88 91 91 91 93 95 97 99 100 100 100 100 100 100 100 95 77 73 75 74 76 78 81 85
64 58 62 69 58 59 58 60 64 62 75 55 64 69 74 75 75 78 79 79 81 84 85 89 92 93 95 99 100 100 100 100 100 100 99 100 99 94 89 86 88 95 99 99
77 55 56 51 45 51 52 53 54 62 48 52 50 60 73 76 75 76 76 75 78 80 78 80 84 84 81 85 96 100 100 100 100 100 100 100 100 100 100 100 100 100 100 99
81 60 41 38 46 49 52 45 44 50 47 46 54 57 67 68 71 70 72 71 73 75 73 71 72 74 73 76 75 81 92 98 100 100 100 100 100 100 100 100 100 100 99 100
87 82 47 38 51 52 57 39 41 49 47 59 61 64 62 64 68 70 70 70 71 70 59 54 60 65 65 71 74 74 77 84 96 100 98 100 100 100 100 100 100 100 100 100
74 93 54 27 52 56 54 46 40 50 51 59 66 59 42 65 67 66 70 76 77 68 52 55 61 57 57 66 75 78 73 73 82 82 82 89 98 100 100 100 100 100 100 100
74 77 56 38 52 56 48 28 42 54 53 60 63 51 64 73 72 72 77 82 82 60 57 64 64 60 64 74 80 82 77 75 79 77 77 73 78 82 81 88 90 94 95 94
69 81 78 42 68 56 29 45 53 59 56 62 60 63 73 75 76 74 74 80 80 58 58 66 72 69 69 80 81 77 79 76 77 79 77 74 70 69 67 63 66 68 74 79
52 45 36 45 46 43 46 49 48 56 53 59 63 67 68 74 76 72 75 79 79 63 59 62 69 73 77 83 83 74 74 72 70 70 71 73 68 69 72 68 66 68 70 72
48 28 39 35 33 33 35 38 40 45 52 58 62 62 67 72 74 74 76 77 79 66 59 60 67 68 78 82 81 70 68 65 64 64 64 69 69 68 72 74 72 73 74 75
46 36 32 31 30 34 39 46 50 50 52 59 62 62 65 68 72 73 76 82 78 69 64 64 67 66 76 82 81 68 67 66 64 64 67 60 66 80 73 87 90 83 80 77
31 23 23 22 29 41 45 44 43 47 52 60 61 62 63 67 71 74 78 81 78 72 66 69 69 68 75 85 87 77 66 69 73 63 65 63 59 55 83 93 94 89 89 90
27 33 34 36 41 40 43 43 43 50 53 58 61 65 64 65 74 79 79 81 77 69 64 69 70 70 76 84 90 82 71 69 69 65 68 68 68 67 63 70 85 91 86 91
40 47 44 36 34 38 44 44 48 50 54 61 64 67 69 71 76 81 81 80 77 70 69 71 73 73 79 82 88 88 77 85 79 76 77 75 74 73 72 71 70 73 81 92
45 47 40 37 41 42 43 46 49 47 47 52 67 72 76 77 78 81 81 82 77 70 71 77 76 75 84 86 86 83 75 76 80 82 82 83 79 77 73 73 73 74 77 81
40 43 47 51 48 46 47 48 50 47 47 54 57 72 76 78 78 83 84 81 74 67 69 77 76 76 84 87 84 85 81 84 86 83 83 80 77 75 74 75 75 78 79 84
48 42 46 50 49 46 48 48 49 50 49 51 57 65 78 83 84 85 85 81 72 64 70 75 75 79 80 87 84 79 84 82 87 85 84 83 81 80 80 79 78 79 82 87
46 41 43 46 48 50 54 55 57 56 55 56 62 73 80 85 83 83 82 82 76 73 75 77 79 78 79 85 87 87 84 83 83 80 87 81 82 81 81 82 82 83 83 83
52 48 48 52 54 60 63 62 62 63 65 67 73 79 82 84 83 82 81 83 80 78 78 83 74 68 82 90 95 87 83 82 79 78 83 85 82 84 88 87 86 88 89 88
53 58 61 65 72 74 71 71 74 74 74 79 82 85 85 86 86 83 80 77 73 68 69 75 80 84 85 98 98 85 82 80 76 76 80 81 83 84 88 92 91 91 91 92
60 62 66 71 71 73 76 76 79 78 80 86 88 85 86 86 88 85 82 76 74 71 61 66 82 86 89 96 98 88 85 82 79 79 83 83 87 89 89 91 92 93 95 97
80 81 82 78 80 78 72 74 82 85 86 89 94 95 94 94 92 88 84 77 73 78 69 75 82 76 84 97 99 90 87 84 83 87 89 90 90 90 92 94 96 96 99 100
67 70 69 75 80 78 74 73 70 77 82 86 91 94 95 90 90 88 87 84 71 78 75 82 75 76 95 99 98 94 90 89 90 91 92 94 95 95 94 93 99 92 97 100
60 62 63 62 72 83 81 67 65 71 77 79 81 85 94 93 93 91 86 76 78 94 91 82 83 92 94 100 94 96 97 92 88 87 86 93 85 84 85 88 89 90 91 94
61 59 67 76 82 75 73 72 70 72 76 76 76 80 84 90 90 88 88 80 89 99 97 93 89 91 100 95 92 92 88 79 76 80 83 83 83 85 87 88 90 90 99 95
68 65 60 59 61 61 68 76 76 71 78 77 79 82 87 91 91 89 90 91 97 98 96 93 92 96 100 88 80 81 80 78 86 83 80 82 83 85 87 88 89 91 94 95
70 68 70 72 66 72 74 75 77 74 77 80 80 83 86 95 99 97 98 97 98 97 96 95 97 100 96 80 72 74 75 76 79 81 84 84 84 85 86 87 89 91 93 94